Billings, MT

6:33 AM MDT on September 24, 2017 (GMT -0600)
Billings Logan International

Weather History for KBIL - August, 2012

Change the Weather History Date:

Wednesday, August 15, 2012

  Actual Average Record
Temperature  
Mean Temperature 64 °F 72 °F  
Max Temperature 74 °F 87 °F 100 °F (2003)
Min Temperature 54 °F 58 °F 43 °F (1944)
Degree Days  
Heating Degree Days 1 0  
Month to date heating degree days 2 0  
Since 1 June heating degree days 37 111  
Since 1 July heating degree days 2 15  
Cooling Degree Days 0 8  
Month to date cooling degree days 155 130  
Year to date cooling degree days 761 488  
Since 1 June cooling degree days 727 471  
Growing Degree Days 18 (Base 50)    
Moisture  
Dew Point 50 °F    
Average Humidity 72    
Maximum Humidity 100    
Minimum Humidity 38    
Precipitation  
Precipitation 0.18 in 0.02 in 0.42 in (1980)
Month to date precipitation 0.30 0.38  
Year to date precipitation 5.08 9.68  
Snow  
Snow 0.00 in 0.00 in 0.00 in (2002)
Month to date snowfall 0.0 0.0  
Since 1 June snowfall T 0.0  
Since 1 July snowfall 0.0 0.0  
Snow Depth 0.00 in    
Sea Level Pressure  
Sea Level Pressure 30.12 in    
Wind  
Wind Speed 8 mph (NNE)    
Max Wind Speed 36 mph    
Max Gust Speed 43 mph    
Visibility 8 miles    
Events Rain    
T = Trace of Precipitation, MM = Missing Value Source: NWS Daily Summary

Daily Weather History Graph

Daily Weather History Graph

Search for Another Location

Airport or City:

Trip Planner

Search our weather history database for the weather conditions in past years. The results will help you decide how hot, cold, wet, or windy it might be!

Date:

Astronomy

Aug. 15, 2012 Rise Set
Actual Time 6:14 AM MDT 8:21 PM MDT
Civil Twilight 5:42 AM MDT 8:53 PM MDT
Nautical Twilight 5:02 AM MDT 9:33 PM MDT
Astronomical Twilight 4:17 AM MDT 10:17 PM MDT
Moon 4:11 AM MDT (8/15) 6:57 PM MDT (8/15)
Length of Visible Light 15h 11m
Length of Day
14h 06m
Waning Crescent, 4% of the Moon is Illuminated
Aug 15
Waning Crescent
Aug 17
New
Aug 24
First Quarter
Aug 31
Full
Sep 8
Last Quarter

Hourly Weather History & Observations

Time (MDT) Temp. Dew Point Humidity Pressure Visibility Wind Dir Wind Speed Gust Speed Precip Events Conditions
12:53 AM 73.0 °F 46.0 °F 38% 29.71 in 10.0 mi NNW 23.0 mph 31.1 mph N/A   Partly Cloudy
1:53 AM 66.9 °F 50.0 °F 54% 29.81 in 10.0 mi North 25.3 mph 35.7 mph N/A   Partly Cloudy
2:53 AM 64.0 °F 48.0 °F 56% 29.88 in 10.0 mi North 19.6 mph 25.3 mph N/A   Partly Cloudy
3:53 AM 63.0 °F 48.0 °F 58% 29.91 in 10.0 mi NNW 9.2 mph - N/A   Partly Cloudy
4:53 AM 62.1 °F 48.0 °F 60% 29.94 in 10.0 mi NE 4.6 mph - N/A   Overcast
5:53 AM 62.1 °F 50.0 °F 65% 29.96 in 10.0 mi NE 3.5 mph - N/A   Overcast
6:53 AM 57.0 °F 54.0 °F 89% 30.01 in 4.0 mi NNE 13.8 mph 24.2 mph 0.00 in Rain Light Rain
7:39 AM 57.2 °F 55.4 °F 94% 30.12 in 10.0 mi North 5.8 mph - 0.01 in   Light Drizzle
7:53 AM 57.0 °F 55.0 °F 93% 30.04 in 10.0 mi North 5.8 mph - 0.01 in   Overcast
8:08 AM 57.2 °F 55.4 °F 94% 30.14 in 7.0 mi NNW 9.2 mph - 0.00 in Rain Light Rain
8:14 AM 57.2 °F 53.6 °F 88% 30.14 in 2.5 mi North 16.1 mph 20.7 mph 0.01 in Rain Rain
8:33 AM 55.4 °F 51.8 °F 88% 30.15 in 3.0 mi NNE 16.1 mph 28.8 mph 0.02 in   Overcast
8:53 AM 54.0 °F 52.0 °F 93% 30.08 in 3.0 mi NNE 10.4 mph - 0.03 in   Overcast
9:49 AM 53.6 °F 53.6 °F 100% 30.19 in 3.0 mi NNE 5.8 mph - 0.01 in Rain Light Rain
9:53 AM 54.0 °F 53.1 °F 97% 30.11 in 3.0 mi NNE 5.8 mph - 0.02 in Rain Light Rain
10:53 AM 54.0 °F 53.1 °F 97% 30.15 in 4.0 mi NNE 6.9 mph - 0.10 in Rain Rain
10:55 AM 53.6 °F 53.6 °F 100% 30.22 in 2.5 mi North 6.9 mph - 0.00 in Rain Rain
11:17 AM 55.4 °F 53.6 °F 94% 30.22 in 2.5 mi NNE 4.6 mph - 0.02 in Rain Light Rain
11:31 AM 55.4 °F 51.8 °F 88% 30.22 in 10.0 mi NNW 3.5 mph - 0.02 in   Overcast
11:53 AM 55.9 °F 51.1 °F 84% 30.17 in 10.0 mi NNE 6.9 mph - 0.02 in   Overcast
12:53 PM 57.9 °F 51.1 °F 78% 30.17 in 10.0 mi NE 9.2 mph - N/A   Overcast
1:53 PM 57.9 °F 48.9 °F 72% 30.19 in 10.0 mi NNE 13.8 mph - N/A   Overcast
2:53 PM 59.0 °F 50.0 °F 72% 30.19 in 10.0 mi NNE 6.9 mph - N/A   Overcast
3:06 PM 59.0 °F 48.2 °F 67% 30.24 in 10.0 mi North 6.9 mph - N/A   Overcast
3:44 PM 60.8 °F 48.2 °F 63% 30.24 in 10.0 mi NNE 9.2 mph - N/A   Overcast
3:53 PM 60.1 °F 48.0 °F 64% 30.19 in 10.0 mi NNE 9.2 mph - N/A   Overcast
4:53 PM 63.0 °F 46.9 °F 56% 30.17 in 10.0 mi North 9.2 mph - N/A   Overcast
5:53 PM 62.1 °F 46.9 °F 58% 30.17 in 10.0 mi NE 8.1 mph - N/A   Overcast
6:53 PM 61.0 °F 46.0 °F 58% 30.19 in 10.0 mi NNE 8.1 mph - N/A   Overcast
7:53 PM 60.1 °F 45.0 °F 57% 30.19 in 10.0 mi NNE 8.1 mph - N/A   Overcast
8:53 PM 60.1 °F 45.0 °F 57% 30.22 in 10.0 mi NNE 6.9 mph - N/A   Overcast
9:53 PM 59.0 °F 46.0 °F 62% 30.24 in 10.0 mi NE 6.9 mph - N/A   Mostly Cloudy
10:53 PM 57.9 °F 45.0 °F 62% 30.25 in 10.0 mi NE 6.9 mph - N/A   Mostly Cloudy
11:53 PM 55.9 °F 45.0 °F 67% 30.25 in 10.0 mi NNE 4.6 mph - N/A   Mostly Cloudy